De Soto, IL

4:54 AM CST on February 25, 2017 (GMT -0600)
Southern Illinois

Weather History for KMDH - February, 2014

Change the Weather History Date:

Tuesday, February 11, 2014

  Actual Average Record
Temperature  
Mean Temperature 12 °F -  
Max Temperature 21 °F 46 °F 74 °F (1938)
Min Temperature 3 °F 23 °F -9 °F (1982)
Degree Days  
Heating Degree Days 53    
Moisture  
Dew Point 0 °F    
Average Humidity 59    
Maximum Humidity 73    
Minimum Humidity 44    
Precipitation  
Precipitation 0.00 in - - ()
Sea Level Pressure  
Sea Level Pressure 30.48 in    
Wind  
Wind Speed 5 mph (NNE)    
Max Wind Speed 10 mph    
Max Gust Speed -    
Visibility 10 miles    
Events      
Averages and records for this station are not official NWS values.
T = Trace of Precipitation, MM = Missing Value Source: NWS Daily Summary

Daily Weather History Graph

Daily Weather History Graph

Search for Another Location

Airport or City:

Trip Planner

Search our weather history database for the weather conditions in past years. The results will help you decide how hot, cold, wet, or windy it might be!

Date:

Astronomy

Feb. 11, 2014 Rise Set
Actual Time 6:51 AM CST 5:31 PM CST
Civil Twilight 6:24 AM CST 5:58 PM CST
Nautical Twilight 5:53 AM CST 6:29 PM CST
Astronomical Twilight 5:22 AM CST 7:00 PM CST
Moon 2:53 PM CST (2/11) 4:26 AM CST (2/11)
Length of Visible Light 11h 34m
Length of Day
10h 40m
Waxing Gibbous, 91% of the Moon is Illuminated
Feb 11
Waxing Gibbous
Feb 14
Full
Feb 22
Last Quarter
Mar 1
New
Mar 8
First Quarter

Hourly Weather History & Observations

Time (CST) Temp. Windchill Dew Point Humidity Pressure Visibility Wind Dir Wind Speed Gust Speed Precip Events Conditions
12:52 AM 7.0 °F -1.7 °F -2.9 °F 64% 30.51 in 10.0 mi North 4.6 mph - N/A   Clear
1:52 AM 6.1 °F -0.9 °F -4.0 °F 63% 30.51 in 10.0 mi NNE 3.5 mph - N/A   Clear
2:52 AM 5.0 °F -5.6 °F -4.0 °F 66% 30.51 in 10.0 mi North 5.8 mph - N/A   Clear
3:52 AM 3.9 °F -6.9 °F -5.1 °F 66% 30.52 in 10.0 mi North 5.8 mph - N/A   Clear
4:52 AM 3.9 °F -5.3 °F -5.1 °F 66% 30.52 in 10.0 mi North 4.6 mph - N/A   Clear
5:52 AM 3.0 °F -8.0 °F -5.1 °F 69% 30.53 in 10.0 mi North 5.8 mph - N/A   Clear
6:52 AM 3.0 °F -4.4 °F -6.0 °F 66% 30.55 in 10.0 mi North 3.5 mph - N/A   Clear
7:52 AM 5.0 °F -4.1 °F -5.1 °F 63% 30.57 in 10.0 mi Variable 4.6 mph - N/A   Mostly Cloudy
8:52 AM 8.1 °F -2.0 °F -2.9 °F 61% 30.57 in 10.0 mi NE 5.8 mph - N/A   Mostly Cloudy
9:52 AM 10.0 °F 0.4 °F -2.0 °F 58% 30.57 in 10.0 mi North 5.8 mph - N/A   Clear
10:52 AM 14.0 °F 3.9 °F -0.0 °F 54% 30.56 in 10.0 mi Variable 6.9 mph - N/A   Clear
11:52 AM 16.0 °F 6.3 °F 1.0 °F 52% 30.54 in 10.0 mi NNE 6.9 mph - N/A   Clear
12:52 PM 18.0 °F 6.9 °F 1.9 °F 50% 30.49 in 10.0 mi ENE 9.2 mph - N/A   Clear
1:52 PM 19.9 °F 14.9 °F 3.0 °F 48% 30.47 in 10.0 mi NE 3.5 mph - N/A   Clear
2:52 PM 21.9 °F 15.7 °F 3.9 °F 46% 30.44 in 10.0 mi NE 4.6 mph - N/A   Clear
3:52 PM 21.9 °F 12.5 °F 3.0 °F 44% 30.44 in 10.0 mi North 8.1 mph - N/A   Clear
4:52 PM 21.0 °F 11.4 °F 3.0 °F 46% 30.43 in 10.0 mi NNE 8.1 mph - N/A   Clear
5:52 PM 19.0 °F 10.0 °F 3.0 °F 50% 30.40 in 10.0 mi NNE 6.9 mph - N/A   Clear
6:52 PM 17.1 °F 5.0 °F 3.0 °F 54% 30.40 in 10.0 mi NE 10.4 mph - N/A   Clear
7:52 PM 15.1 °F 7.7 °F 3.9 °F 61% 30.41 in 10.0 mi NE 4.6 mph - N/A   Clear
8:52 PM 14.0 °F 6.5 °F 3.9 °F 64% 30.41 in 10.0 mi NNE 4.6 mph - N/A   Clear
9:52 PM 12.9 °F 5.2 °F 3.0 °F 65% 30.42 in 10.0 mi North 4.6 mph - N/A   Clear
10:52 PM 12.0 °F 5.9 °F 3.0 °F 67% 30.40 in 10.0 mi NNE 3.5 mph - N/A   Clear
11:52 PM 10.0 °F 3.6 °F 3.0 °F 73% 30.38 in 10.0 mi NNW 3.5 mph - N/A   Clear